Time,TemperatureF,DewpointF,PressureIn,WindDirection,WindDirectionDegrees,WindSpeedMPH,WindSpeedGustMPH,Humidity,HourlyPrecipIn,Conditions,Clouds,dailyrainin,SoftwareType,DateUTC
2013-05-25 00:03:00,35.0,29.0,30.24,West,270,0.0,1.0,78,0.00,,,0.00,,2013-05-25 04:03:00,
2013-05-25 00:13:00,35.0,29.0,30.24,West,270,0.0,1.0,78,0.00,,,0.00,,2013-05-25 04:13:00,
2013-05-25 00:23:00,35.0,29.0,30.24,West,270,0.0,0.0,79,0.00,,,0.00,,2013-05-25 04:23:00,
2013-05-25 00:33:00,35.0,29.0,30.24,West,270,1.0,1.0,79,0.00,,,0.00,,2013-05-25 04:33:00,
2013-05-25 00:43:00,35.0,29.0,30.24,West,270,1.0,1.0,79,0.00,,,0.00,,2013-05-25 04:43:00,
2013-05-25 00:53:00,34.0,28.0,30.24,West,270,0.0,1.0,79,0.00,,,0.00,,2013-05-25 04:53:00,
2013-05-25 01:02:00,34.0,28.0,30.24,West,270,0.0,0.0,80,0.00,,,0.00,,2013-05-25 05:02:00,
2013-05-25 01:12:00,34.0,28.0,30.24,West,270,0.0,0.0,80,0.00,,,0.00,,2013-05-25 05:12:00,
2013-05-25 01:22:00,34.0,28.0,30.24,West,270,0.0,0.0,80,0.00,,,0.00,,2013-05-25 05:22:00,
2013-05-25 01:32:00,34.0,29.0,30.25,West,270,0.0,0.0,81,0.00,,,0.00,,2013-05-25 05:32:00,
2013-05-25 01:43:00,34.0,29.0,30.25,West,270,0.0,0.0,81,0.00,,,0.00,,2013-05-25 05:43:00,
2013-05-25 01:52:00,34.0,29.0,30.25,West,270,0.0,0.0,81,0.00,,,0.00,,2013-05-25 05:52:00,
2013-05-25 02:02:00,34.0,29.0,30.25,West,270,0.0,0.0,81,0.00,,,0.00,,2013-05-25 06:02:00,
2013-05-25 02:12:00,34.0,29.0,30.25,West,270,0.0,0.0,81,0.00,,,0.00,,2013-05-25 06:12:00,
2013-05-25 02:22:00,34.0,29.0,30.25,West,270,0.0,0.0,81,0.00,,,0.00,,2013-05-25 06:22:00,
2013-05-25 02:32:00,34.0,29.0,30.25,West,270,0.0,0.0,81,0.00,,,0.00,,2013-05-25 06:32:00,
2013-05-25 02:42:00,34.0,29.0,30.25,West,270,0.0,0.0,81,0.00,,,0.00,,2013-05-25 06:42:00,
2013-05-25 02:52:00,34.0,29.0,30.25,West,270,0.0,0.0,81,0.00,,,0.00,,2013-05-25 06:52:00,
2013-05-25 03:01:00,33.0,28.0,30.25,West,270,0.0,1.0,81,0.00,,,0.00,,2013-05-25 07:01:00,
2013-05-25 03:11:00,33.0,28.0,30.25,West,270,0.0,1.0,81,0.00,,,0.00,,2013-05-25 07:11:00,
2013-05-25 03:22:00,33.0,28.0,30.24,NW,315,0.0,1.0,81,0.00,,,0.00,,2013-05-25 07:22:00,
2013-05-25 03:32:00,33.0,28.0,30.25,NW,315,0.0,1.0,82,0.00,,,0.00,,2013-05-25 07:32:00,
2013-05-25 03:42:00,33.0,28.0,30.25,NW,315,0.0,1.0,82,0.00,,,0.00,,2013-05-25 07:42:00,
2013-05-25 03:52:00,33.0,28.0,30.24,NW,315,1.0,1.0,82,0.00,,,0.00,,2013-05-25 07:52:00,
2013-05-25 04:02:00,33.0,28.0,30.24,NW,315,1.0,1.0,82,0.00,,,0.00,,2013-05-25 08:02:00,
2013-05-25 04:11:00,33.0,28.0,30.24,NW,315,1.0,1.0,82,0.00,,,0.00,,2013-05-25 08:11:00,
2013-05-25 04:22:00,33.0,28.0,30.24,NW,315,0.0,1.0,83,0.00,,,0.00,,2013-05-25 08:22:00,
2013-05-25 04:32:00,33.0,28.0,30.24,North,0,1.0,1.0,83,0.00,,,0.00,,2013-05-25 08:32:00,
2013-05-25 04:42:00,33.0,28.0,30.24,North,0,1.0,1.0,83,0.00,,,0.00,,2013-05-25 08:42:00,
2013-05-25 04:52:00,33.0,28.0,30.24,NNW,338,1.0,1.0,83,0.00,,,0.00,,2013-05-25 08:52:00,
2013-05-25 05:02:00,33.0,28.0,30.24,NNW,338,1.0,1.0,83,0.00,,,0.00,,2013-05-25 09:02:00,
2013-05-25 05:11:00,33.0,28.0,30.24,NNW,338,1.0,1.0,83,0.00,,,0.00,,2013-05-25 09:11:00,
2013-05-25 05:21:00,33.0,29.0,30.25,NNW,338,0.0,1.0,84,0.00,,,0.00,,2013-05-25 09:21:00,
2013-05-25 05:33:00,33.0,29.0,30.25,NNW,338,0.0,0.0,84,0.00,,,0.00,,2013-05-25 09:33:00,
2013-05-25 05:43:00,33.0,29.0,30.25,NNW,338,0.0,0.0,84,0.00,,,0.00,,2013-05-25 09:43:00,
2013-05-25 05:53:00,33.0,29.0,30.26,NNW,338,0.0,1.0,84,0.00,,,0.00,,2013-05-25 09:53:00,
2013-05-25 06:03:00,33.0,29.0,30.26,NNW,338,0.0,0.0,84,0.00,,,0.00,,2013-05-25 10:03:00,
2013-05-25 06:12:00,33.0,29.0,30.26,NNW,338,0.0,0.0,84,0.00,,,0.00,,2013-05-25 10:12:00,
2013-05-25 06:23:00,33.0,29.0,30.26,NNW,338,0.0,0.0,84,0.00,,,0.00,,2013-05-25 10:23:00,
2013-05-25 06:33:00,33.0,29.0,30.27,NNW,338,1.0,1.0,84,0.00,,,0.00,,2013-05-25 10:33:00,
2013-05-25 06:42:00,33.0,29.0,30.27,NNW,338,1.0,1.0,84,0.00,,,0.00,,2013-05-25 10:42:00,
2013-05-25 06:52:00,33.0,29.0,30.26,NNW,338,0.0,0.0,85,0.00,,,0.00,,2013-05-25 10:52:00,
2013-05-25 07:02:00,34.0,30.0,30.27,NNW,338,0.0,1.0,85,0.00,,,0.00,,2013-05-25 11:02:00,
2013-05-25 07:12:00,34.0,30.0,30.27,NNW,338,0.0,1.0,85,0.00,,,0.00,,2013-05-25 11:12:00,
2013-05-25 07:22:00,34.0,30.0,30.27,NNW,338,0.0,1.0,85,0.00,,,0.00,,2013-05-25 11:22:00,
2013-05-25 07:32:00,35.0,31.0,30.26,WNW,293,0.0,1.0,86,0.00,,,0.00,,2013-05-25 11:32:00,
2013-05-25 07:42:00,35.0,31.0,30.26,WNW,293,0.0,1.0,86,0.00,,,0.00,,2013-05-25 11:42:00,
2013-05-25 07:52:00,36.0,33.0,30.26,West,273,1.0,2.0,87,0.00,,,0.00,,2013-05-25 11:52:00,
2013-05-25 08:02:00,38.0,35.0,30.26,NNW,330,1.0,3.0,89,0.00,,,0.00,,2013-05-25 12:02:00,
2013-05-25 08:12:00,38.0,35.0,30.26,NNW,330,1.0,3.0,89,0.00,,,0.00,,2013-05-25 12:12:00,
2013-05-25 08:22:00,39.0,36.0,30.26,NW,313,2.0,4.0,89,0.00,,,0.00,,2013-05-25 12:22:00,
2013-05-25 08:32:00,41.0,38.0,30.27,WNW,303,2.0,3.0,89,0.00,,,0.00,,2013-05-25 12:32:00,
2013-05-25 08:42:00,41.0,38.0,30.27,WNW,303,2.0,3.0,89,0.00,,,0.00,,2013-05-25 12:42:00,
2013-05-25 08:52:00,42.0,39.0,30.28,NW,313,2.0,4.0,88,0.00,,,0.00,,2013-05-25 12:52:00,
2013-05-25 09:02:00,43.0,39.0,30.27,NW,314,2.0,4.0,87,0.00,,,0.00,,2013-05-25 13:02:00,
2013-05-25 09:11:00,43.0,39.0,30.27,NW,314,2.0,4.0,87,0.00,,,0.00,,2013-05-25 13:11:00,
2013-05-25 09:22:00,46.0,40.0,30.28,NNW,347,3.0,8.0,79,0.00,,,0.00,,2013-05-25 13:22:00,
2013-05-25 09:32:00,47.0,40.0,30.29,NW,325,6.0,8.0,76,0.00,,,0.00,,2013-05-25 13:32:00,
2013-05-25 09:42:00,47.0,40.0,30.29,NW,325,6.0,8.0,76,0.00,,,0.00,,2013-05-25 13:42:00,
2013-05-25 09:52:00,48.0,40.0,30.29,NE,44,3.0,8.0,74,0.00,,,0.00,,2013-05-25 13:52:00,
2013-05-25 10:02:00,49.0,40.0,30.29,NNW,342,6.0,8.0,70,0.00,,,0.00,,2013-05-25 14:02:00,
2013-05-25 10:11:00,49.0,40.0,30.29,NNW,342,6.0,8.0,70,0.00,,,0.00,,2013-05-25 14:11:00,
2013-05-25 10:22:00,50.0,39.0,30.28,WNW,302,7.0,10.0,66,0.00,,,0.00,,2013-05-25 14:22:00,
2013-05-25 10:32:00,50.0,39.0,30.28,NNW,340,7.0,11.0,66,0.00,,,0.00,,2013-05-25 14:32:00,
2013-05-25 10:42:00,50.0,39.0,30.28,NNW,340,7.0,11.0,66,0.00,,,0.00,,2013-05-25 14:42:00,
2013-05-25 10:52:00,52.0,38.0,30.29,NW,320,10.0,18.0,59,0.01,,,0.01,,2013-05-25 14:52:00,
2013-05-25 11:01:00,52.0,38.0,30.29,NW,320,10.0,18.0,59,0.01,,,0.01,,2013-05-25 15:01:00,
2013-05-25 11:12:00,52.0,38.0,30.29,NW,320,10.0,18.0,59,0.01,,,0.01,,2013-05-25 15:12:00,
2013-05-25 11:22:00,53.0,39.0,30.29,NW,308,7.0,15.0,58,0.01,,,0.01,,2013-05-25 15:22:00,
2013-05-25 11:33:00,53.0,38.0,30.29,NW,318,7.0,10.0,56,0.01,,,0.01,,2013-05-25 15:33:00,
2013-05-25 11:43:00,53.0,38.0,30.29,NW,318,7.0,10.0,56,0.01,,,0.01,,2013-05-25 15:43:00,
2013-05-25 11:53:00,54.0,38.0,30.29,North,3,7.0,11.0,55,0.01,,,0.01,,2013-05-25 15:53:00,
2013-05-25 12:03:00,54.0,38.0,30.29,North,3,7.0,11.0,55,0.01,,,0.01,,2013-05-25 16:03:00,
2013-05-25 12:12:00,54.0,38.0,30.29,North,3,7.0,11.0,55,0.01,,,0.01,,2013-05-25 16:12:00,
2013-05-25 12:23:00,55.0,37.0,30.28,NW,322,8.0,12.0,51,0.00,,,0.01,,2013-05-25 16:23:00,
2013-05-25 12:33:00,56.0,37.0,30.27,NNW,331,9.0,13.0,49,0.00,,,0.01,,2013-05-25 16:33:00,
2013-05-25 12:42:00,56.0,37.0,30.27,NNW,331,9.0,13.0,49,0.00,,,0.01,,2013-05-25 16:42:00,
2013-05-25 12:52:00,56.0,36.0,30.27,North,353,6.0,11.0,47,0.00,,,0.01,,2013-05-25 16:52:00,
2013-05-25 13:03:00,57.0,35.0,30.26,NW,316,10.0,15.0,44,0.00,,,0.01,,2013-05-25 17:03:00,
2013-05-25 13:11:00,57.0,35.0,30.26,NW,316,10.0,15.0,44,0.00,,,0.01,,2013-05-25 17:11:00,
2013-05-25 13:22:00,57.0,35.0,30.26,WNW,298,12.0,17.0,43,0.00,,,0.01,,2013-05-25 17:22:00,
2013-05-25 13:32:00,58.0,35.0,30.27,NNW,331,11.0,16.0,42,0.00,,,0.01,,2013-05-25 17:32:00,
2013-05-25 13:42:00,58.0,35.0,30.27,NNW,331,11.0,16.0,42,0.00,,,0.01,,2013-05-25 17:42:00,
2013-05-25 13:52:00,58.0,36.0,30.26,NNW,332,10.0,17.0,44,0.00,,,0.01,,2013-05-25 17:52:00,
2013-05-25 14:02:00,58.0,35.0,30.26,NW,326,10.0,13.0,42,0.00,,,0.01,,2013-05-25 18:02:00,
2013-05-25 14:11:00,58.0,35.0,30.26,NW,326,10.0,13.0,42,0.00,,,0.01,,2013-05-25 18:11:00,
2013-05-25 14:22:00,59.0,37.0,30.25,NW,309,8.0,16.0,43,0.00,,,0.01,,2013-05-25 18:22:00,
2013-05-25 14:32:00,59.0,37.0,30.25,NW,309,8.0,16.0,43,0.00,,,0.01,,2013-05-25 18:32:00,
2013-05-25 14:42:00,59.0,37.0,30.25,NW,309,8.0,16.0,43,0.00,,,0.01,,2013-05-25 18:42:00,
2013-05-25 14:52:00,59.0,37.0,30.25,North,5,9.0,17.0,43,0.00,,,0.01,,2013-05-25 18:52:00,
2013-05-25 15:02:00,59.0,37.0,30.24,NNW,337,6.0,12.0,43,0.00,,,0.01,,2013-05-25 19:02:00,
2013-05-25 15:11:00,59.0,37.0,30.24,NNW,337,6.0,12.0,43,0.00,,,0.01,,2013-05-25 19:11:00,
2013-05-25 15:22:00,59.0,36.0,30.24,North,359,7.0,13.0,42,0.00,,,0.01,,2013-05-25 19:22:00,
2013-05-25 15:32:00,59.0,37.0,30.24,North,351,8.0,14.0,43,0.00,,,0.01,,2013-05-25 19:32:00,
2013-05-25 15:42:00,59.0,37.0,30.24,North,351,8.0,14.0,43,0.00,,,0.01,,2013-05-25 19:42:00,
2013-05-25 15:52:00,59.0,37.0,30.25,NW,310,8.0,12.0,43,0.00,,,0.01,,2013-05-25 19:52:00,
2013-05-25 16:02:00,60.0,37.0,30.25,NW,319,8.0,12.0,43,0.00,,,0.01,,2013-05-25 20:02:00,
2013-05-25 16:11:00,60.0,37.0,30.25,NW,319,8.0,12.0,43,0.00,,,0.01,,2013-05-25 20:11:00,
2013-05-25 16:22:00,60.0,36.0,30.24,NW,319,9.0,12.0,40,0.00,,,0.01,,2013-05-25 20:22:00,
2013-05-25 16:32:00,60.0,37.0,30.24,NW,311,9.0,13.0,42,0.00,,,0.01,,2013-05-25 20:32:00,
2013-05-25 16:42:00,60.0,37.0,30.24,NW,311,9.0,13.0,42,0.00,,,0.01,,2013-05-25 20:42:00,
2013-05-25 16:52:00,60.0,36.0,30.24,NNW,327,7.0,14.0,41,0.00,,,0.01,,2013-05-25 20:52:00,
2013-05-25 17:02:00,60.0,36.0,30.23,North,351,7.0,12.0,41,0.00,,,0.01,,2013-05-25 21:02:00,
2013-05-25 17:11:00,60.0,36.0,30.23,North,351,7.0,12.0,41,0.00,,,0.01,,2013-05-25 21:11:00,
2013-05-25 17:22:00,61.0,36.0,30.23,NNW,334,8.0,14.0,39,0.00,,,0.01,,2013-05-25 21:22:00,
2013-05-25 17:33:00,60.0,36.0,30.23,NW,315,6.0,14.0,40,0.00,,,0.01,,2013-05-25 21:33:00,
2013-05-25 17:43:00,60.0,36.0,30.23,NW,315,6.0,14.0,40,0.00,,,0.01,,2013-05-25 21:43:00,
2013-05-25 17:53:00,61.0,36.0,30.23,NNW,330,9.0,12.0,39,0.00,,,0.01,,2013-05-25 21:53:00,
2013-05-25 18:03:00,61.0,36.0,30.24,NW,319,8.0,16.0,39,0.00,,,0.01,,2013-05-25 22:03:00,
2013-05-25 18:13:00,61.0,36.0,30.24,NW,319,8.0,16.0,39,0.00,,,0.01,,2013-05-25 22:13:00,
2013-05-25 18:23:00,61.0,36.0,30.24,NNW,341,8.0,11.0,39,0.00,,,0.01,,2013-05-25 22:23:00,
2013-05-25 18:32:00,61.0,36.0,30.23,North,2,7.0,13.0,39,0.00,,,0.01,,2013-05-25 22:32:00,
2013-05-25 18:42:00,61.0,36.0,30.23,North,2,7.0,13.0,39,0.00,,,0.01,,2013-05-25 22:42:00,
2013-05-25 18:52:00,61.0,35.0,30.23,NW,318,7.0,11.0,38,0.00,,,0.01,,2013-05-25 22:52:00,
2013-05-25 19:02:00,60.0,36.0,30.22,NW,326,5.0,11.0,40,0.00,,,0.01,,2013-05-25 23:02:00,
2013-05-25 19:12:00,60.0,36.0,30.22,NW,326,5.0,11.0,40,0.00,,,0.01,,2013-05-25 23:12:00,
2013-05-25 19:22:00,60.0,34.0,30.22,NNW,332,7.0,14.0,37,0.00,,,0.01,,2013-05-25 23:22:00,
2013-05-25 19:32:00,59.0,33.0,30.22,NW,322,5.0,12.0,38,0.00,,,0.01,,2013-05-25 23:32:00,
2013-05-25 19:42:00,59.0,33.0,30.22,NW,322,5.0,12.0,38,0.00,,,0.01,,2013-05-25 23:42:00,
2013-05-25 19:52:00,60.0,33.0,30.24,WNW,296,7.0,10.0,36,0.00,,,0.01,,2013-05-25 23:52:00,
2013-05-25 20:02:00,58.0,33.0,30.24,NW,319,4.0,10.0,39,0.00,,,0.01,,2013-05-26 00:02:00,
2013-05-25 20:11:00,58.0,33.0,30.24,NW,319,4.0,10.0,39,0.00,,,0.01,,2013-05-26 00:11:00,
2013-05-25 20:22:00,59.0,33.0,30.24,NNW,335,3.0,7.0,38,0.00,,,0.01,,2013-05-26 00:22:00,
2013-05-25 20:32:00,58.0,33.0,30.24,NW,314,3.0,7.0,39,0.00,,,0.01,,2013-05-26 00:32:00,
2013-05-25 20:42:00,58.0,33.0,30.24,NW,314,3.0,7.0,39,0.00,,,0.01,,2013-05-26 00:42:00,
2013-05-25 20:53:00,55.0,31.0,30.23,NNW,327,2.0,8.0,40,0.00,,,0.01,,2013-05-26 00:53:00,
2013-05-25 21:01:00,55.0,31.0,30.23,NNW,327,2.0,8.0,40,0.00,,,0.01,,2013-05-26 01:01:00,
2013-05-25 21:11:00,55.0,31.0,30.23,NNW,327,2.0,8.0,40,0.00,,,0.01,,2013-05-26 01:11:00,
2013-05-25 21:21:00,53.0,31.0,30.23,NW,315,1.0,2.0,43,0.00,,,0.01,,2013-05-26 01:21:00,
2013-05-25 21:32:00,52.0,31.0,30.23,WNW,293,1.0,1.0,44,0.00,,,0.01,,2013-05-26 01:32:00,
2013-05-25 21:42:00,52.0,31.0,30.23,WNW,293,1.0,1.0,44,0.00,,,0.01,,2013-05-26 01:42:00,
2013-05-25 21:53:00,51.0,31.0,30.23,NW,315,0.0,1.0,46,0.00,,,0.01,,2013-05-26 01:53:00,
2013-05-25 22:02:00,50.0,31.0,30.23,NW,315,0.0,1.0,48,0.00,,,0.01,,2013-05-26 02:02:00,
2013-05-25 22:11:00,50.0,31.0,30.23,NW,315,0.0,1.0,48,0.00,,,0.01,,2013-05-26 02:11:00,
2013-05-25 22:21:00,49.0,31.0,30.22,NW,315,1.0,1.0,50,0.00,,,0.01,,2013-05-26 02:21:00,
2013-05-25 22:32:00,49.0,31.0,30.22,NW,315,1.0,1.0,50,0.00,,,0.01,,2013-05-26 02:32:00,
2013-05-25 22:42:00,49.0,31.0,30.22,NW,315,1.0,1.0,50,0.00,,,0.01,,2013-05-26 02:42:00,
2013-05-25 22:52:00,48.0,31.0,30.22,NW,315,0.0,1.0,52,0.00,,,0.01,,2013-05-26 02:52:00,
2013-05-25 23:01:00,47.0,31.0,30.23,NW,304,1.0,2.0,54,0.00,,,0.01,,2013-05-26 03:01:00,
2013-05-25 23:11:00,47.0,31.0,30.23,NW,304,1.0,2.0,54,0.00,,,0.01,,2013-05-26 03:11:00,
2013-05-25 23:22:00,45.0,31.0,30.23,WNW,293,0.0,1.0,57,0.00,,,0.01,,2013-05-26 03:22:00,
2013-05-25 23:33:00,45.0,31.0,30.23,WNW,293,0.0,0.0,57,0.00,,,0.01,,2013-05-26 03:33:00,
2013-05-25 23:43:00,45.0,31.0,30.23,WNW,293,0.0,0.0,57,0.00,,,0.01,,2013-05-26 03:43:00,
2013-05-25 23:53:00,44.0,31.0,30.23,NW,315,0.0,1.0,59,0.00,,,0.01,,2013-05-26 03:53:00,